Location: Spruce Knob
(38.6995°N, 79.5330°W)
Time: 02:53:29
(UTC-05:00)

BlueWalker 3 - Visible Passes

Search period start: 07 December 2022 00:00
Search period end: 17 December 2022 00:00
Orbit: 501 x 518 km, 53.2° (Epoch: 06 December)

Date Brightness Start Highest point End Pass type
(mag) Time Alt. Az. Time Alt. Az. Time Alt. Az.
07 Dec 4.1 17:29:29 10° NNW 17:31:16 13° NNE 17:33:02 10° NE visible
07 Dec 4.0 19:07:06 10° NW 19:08:30 20° NNW 19:08:30 20° NNW visible
08 Dec 3.0 18:48:40 10° NW 18:51:16 34° N 18:51:16 34° N visible
09 Dec 2.2 18:30:14 10° NW 18:34:00 47° NE 18:34:14 46° NE visible
10 Dec 2.1 18:11:48 10° NW 18:15:36 50° NE 18:17:28 26° E visible
10 Dec 4.9 19:51:10 10° W 19:52:21 15° W 19:52:21 15° W visible
11 Dec 2.1 17:53:21 10° NW 17:57:11 53° NE 18:00:58 10° ESE visible
11 Dec 4.5 19:32:52 10° W 19:35:31 18° SW 19:36:01 17° SW visible
12 Dec 2.0 17:34:55 10° NW 17:38:46 57° NE 17:42:35 10° ESE visible
12 Dec 4.8 19:14:34 10° W 19:17:04 16° SW 19:19:32 10° SSW visible
13 Dec 5.0 18:56:18 10° W 18:58:36 15° SW 19:00:54 10° SSW visible
14 Dec 5.1 18:38:02 10° W 18:40:08 14° SW 18:42:14 10° SSW visible
15 Dec 5.2 18:19:48 10° W 18:21:40 13° SW 18:23:31 10° SSW visible
16 Dec 5.4 18:01:38 10° W 18:03:12 12° SW 18:04:45 10° SSW visible
